Wind_Speed
18 19 19 19 20 20 19 18 16 16 17 18 18 17 18 21 24 19 12 2 4 9 11 15 15 16 18 17 21 19 16 18 25 23 18 19 21 22 11 15 18 20 12 10 7
19 19 19 20 20 20 19 16 16 16 16 17 18 19 20 24 22 18 4 4 8 10 10 13 13 16 15 15 13 17 17 28 24 22 19 18 19 23 13 19 18 21 7 6 19
19 19 19 20 20 20 18 17 16 16 17 19 20 21 21 18 11 9 5 8 7 8 12 15 17 15 19 19 21 23 27 25 27 26 23 26 22 13 16 21 20 17 15 8 8
19 20 20 21 20 19 19 17 17 18 18 21 21 21 22 9 2 8 7 7 9 8 11 13 12 15 18 21 22 27 30 28 29 24 27 28 25 17 16 20 24 19 20 9 14
20 20 21 21 21 19 18 17 18 18 18 20 20 17 11 7 1 4 7 8 11 11 12 9 11 14 19 19 22 29 29 29 28 26 24 27 29 26 18 21 23 25 21 16 16
23 22 23 23 22 20 18 18 18 19 20 21 17 15 9 13 3 3 5 8 7 9 11 13 10 13 17 20 22 22 27 29 28 29 26 28 29 23 26 20 23 24 25 8 8
24 25 26 24 22 19 17 18 17 20 21 18 12 9 11 12 2 5 7 10 10 5 7 11 14 11 14 18 18 19 26 26 28 26 27 26 26 30 24 22 24 23 23 20 20
25 28 25 25 23 20 17 16 19 19 15 11 10 7 7 3 4 4 11 12 9 13 14 11 10 13 13 16 22 22 23 20 25 27 28 23 29 29 26 19 22 24 23 21 21
28 31 30 27 23 18 17 16 18 13 11 9 6 8 11 4 7 7 11 11 13 12 12 10 8 13 14 14 15 16 20 24 26 24 23 26 31 27 23 21 23 21 21 22 20
30 32 32 30 23 16 16 17 17 13 8 8 13 8 11 6 9 10 10 11 11 11 12 12 12 13 13 13 16 17 20 20 26 24 25 25 29 29 25 25 23 21 21 23 22
29 33 34 30 19 11 18 10 4 5 14 13 14 13 11 5 8 8 8 9 11 9 14 11 12 13 17 17 20 19 21 25 26 26 26 22 25 27 23 24 25 20 19 23 26
32 35 34 25 13 8 12 8 9 9 10 16 15 11 10 9 7 9 6 9 13 14 15 13 15 15 15 17 19 20 23 25 24 24 21 24 28 29 21 21 20 21 22 22 20
34 34 30 19 9 9 12 7 9 11 7 6 3 5 7 5 10 12 5 9 13 16 15 15 17 20 19 19 22 20 19 22 23 20 20 24 26 26 27 24 19 20 20 21 20
37 34 25 12 7 6 3 7 11 10 5 7 7 4 5 4 15 3 9 7 12 16 17 15 19 20 20 22 19 21 20 23 22 19 17 18 18 21 22 24 21 23 23 17 16
38 33 17 5 13 8 10 12 11 7 4 4 8 6 4 8 10 11 1 7 13 15 14 18 19 19 21 23 22 25 23 21 22 22 21 22 15 21 21 24 23 20 22 20 16
40 32 11 5 8 6 11 11 7 5 2 5 1 4 9 11 15 5 12 11 18 20 18 20 18 15 17 21 22 22 23 25 22 18 17 24 20 22 19 22 24 22 19 22 23
41 26 12 11 8 10 13 10 5 6 5 3 6 11 13 18 5 6 8 13 13 10 13 17 17 8 12 17 20 14 15 13 15 15 17 22 21 18 23 23 27 23 21 19 19
38 13 5 10 10 9 12 8 5 9 11 15 10 15 17 11 7 7 13 12 7 11 13 12 15 7 4 21 20 10 6 7 12 16 18 20 15 17 20 22 23 23 24 19 14
31 8 5 8 4 7 7 6 3 10 12 11 14 12 11 14 12 13 11 10 7 8 12 14 15 19 20 17 17 19 13 12 12 17 16 18 24 20 22 22 21 24 23 17 15
23 11 6 6 1 6 5 10 13 8 10 12 12 8 13 16 13 13 13 11 10 15 10 14 21 19 23 10 17 24 18 10 1 5 17 17 21 14 16 16 21 22 19 22 14
8 4 4 1 2 5 5 11 12 14 11 7 12 14 15 14 13 13 14 16 11 15 15 18 14 17 20 19 16 11 10 6 7 6 10 14 12 8 21 24 27 27 19 4 8
7 3 5 3 6 4 5 8 3 5 8 12 7 12 9 14 15 19 18 13 15 12 15 10 7 16 22 25 21 19 16 11 9 14 13 12 18 16 21 26 30 33 8 15 6
7 4 5 3 3 6 11 14 11 6 9 11 9 10 12 14 14 10 17 18 17 12 8 8 4 10 14 18 8 7 14 17 15 9 15 12 14 15 21 23 28 26 20 21 11
5 4 2 3 4 8 13 13 12 11 9 4 7 9 13 12 13 11 18 19 6 6 4 5 6 14 15 21 3 6 19 25 18 10 14 14 19 8 8 11 22 24 25 18 13
4 5 5 6 9 13 8 13 13 13 10 9 11 14 13 16 17 18 15 22 20 5 4 6 8 15 20 23 22 21 26 30 23 18 18 16 18 12 8 7 18 20 29 16 12
6 5 7 12 10 13 6 9 12 10 13 14 14 14 17 17 17 25 22 19 18 18 7 3 5 14 18 19 21 24 25 27 26 20 22 18 17 13 9 12 21 28 18 11 11
6 2 4 9 9 11 9 10 11 14 9 11 15 17 19 17 21 22 22 22 20 20 4 3 5 9 15 15 15 14 16 17 24 17 20 18 12 14 9 14 17 10 14 10 10
Wind_Direction
346 343 340 337 334 333 331 330 330 331 333 331 328 323 321 318 312 300 244 23 340 335 314 285 265 254 237 243 262 252 249 248 247 250 267 280 289 287 247 262 263 271 265 19 280
342 340 336 333 331 330 329 326 324 324 327 331 333 328 322 320 310 281 132 21 319 311 309 290 258 237 235 239 222 234 243 241 245 257 256 264 255 273 270 268 255 244 266 73 111
341 338 334 331 328 326 324 321 317 318 322 327 322 321 321 327 282 116 45 0 326 277 268 271 277 269 258 234 233 224 244 247 252 257 255 268 276 265 269 264 254 243 248 183 217
342 339 333 329 326 324 322 317 313 312 316 322 320 320 322 301 346 118 360 318 332 276 273 261 252 249 254 253 243 242 240 246 256 264 279 279 286 275 260 272 287 285 235 212 222
342 339 335 331 326 321 318 312 309 308 313 319 318 320 332 234 18 113 335 282 297 266 279 280 277 269 257 253 253 253 251 252 251 250 259 273 270 272 257 262 280 287 284 217 216
343 339 335 330 326 320 316 310 306 306 309 312 312 314 267 287 34 15 300 288 296 317 308 301 293 289 285 282 269 264 261 262 261 261 255 247 258 260 252 247 264 275 279 218 228
343 340 336 331 326 320 313 307 305 304 302 302 296 303 273 271 341 322 304 315 313 295 296 304 315 304 300 295 265 266 273 275 265 263 255 257 258 248 254 252 250 258 266 272 196
346 341 334 329 326 319 311 303 307 308 300 286 289 270 259 94 313 296 330 315 314 314 296 276 279 281 279 277 284 279 281 262 251 252 255 260 256 248 252 246 245 254 266 265 267
346 343 336 329 323 317 308 299 306 306 290 286 279 221 275 161 237 350 318 314 312 300 301 285 266 270 281 269 265 243 258 262 269 252 249 238 253 249 255 251 244 237 257 265 261
342 340 336 330 321 314 299 301 292 284 277 249 255 266 258 249 2 315 299 305 305 295 284 250 235 257 247 247 254 269 259 252 252 257 265 257 242 248 242 250 244 240 229 247 252
339 341 338 328 320 306 313 318 218 207 236 268 294 261 296 314 317 292 360 316 289 283 286 315 299 277 282 271 272 290 284 278 281 292 299 290 266 261 239 238 238 239 238 233 250
345 342 339 331 315 280 292 281 33 313 301 279 270 259 282 275 280 297 315 288 320 306 304 291 270 272 285 275 275 274 276 278 285 290 291 285 281 280 271 256 243 232 227 240 257
346 342 339 329 301 258 249 19 327 323 286 310 197 244 225 223 273 306 323 312 295 299 301 297 298 304 293 288 284 276 271 276 282 290 283 283 280 274 272 277 282 283 265 224 229
346 342 335 323 295 288 230 340 326 342 274 132 183 177 218 248 264 231 258 300 304 297 298 295 296 287 282 273 278 278 279 281 282 282 277 277 275 262 269 264 253 257 269 250 233
346 341 331 282 307 311 349 330 329 268 272 138 121 104 260 245 281 291 231 257 277 282 285 289 293 289 288 284 291 284 289 281 279 277 281 269 261 268 269 271 258 255 246 255 253
345 338 311 277 249 311 329 327 277 242 271 150 237 259 274 299 293 337 280 244 262 267 263 270 280 287 308 306 301 304 293 290 272 270 260 262 258 266 264 261 265 267 258 233 233
341 333 278 289 327 336 329 291 254 270 118 96 344 322 316 287 298 305 301 285 296 320 313 315 315 11 342 319 289 266 273 267 253 248 256 254 251 257 268 266 262 267 267 278 275
338 326 273 254 308 334 311 274 267 312 331 4 329 313 279 291 307 325 301 296 316 347 321 322 311 0 225 272 291 263 235 260 269 273 278 295 289 292 306 299 283 274 276 262 287
339 320 237 247 279 313 291 259 290 1 353 334 314 304 314 336 339 314 305 322 338 333 311 312 294 291 296 299 293 285 261 180 283 282 279 276 285 268 266 271 263 267 253 255 256
328 297 286 149 244 289 265 262 285 19 353 325 305 296 322 323 328 324 331 327 348 319 321 313 304 300 300 293 307 281 295 289 201 277 275 258 252 277 262 272 246 259 252 240 233
290 250 93 22 298 249 265 293 348 357 331 318 320 314 321 326 319 302 301 307 341 336 330 304 301 307 311 281 268 274 238 290 343 272 278 264 267 274 8 355 329 313 270 151 259
302 324 97 299 262 235 273 345 294 303 314 277 289 305 324 316 318 308 302 313 324 350 324 3 297 288 290 292 286 286 300 190 267 284 257 276 273 23 12 348 337 327 71 300 254
307 301 149 262 340 331 318 331 321 341 329 316 310 344 314 312 308 305 310 305 326 348 351 0 285 301 294 279 59 20 321 310 294 306 283 278 281 355 24 343 328 324 319 280 328
291 325 129 309 226 301 342 319 332 319 289 354 296 283 300 302 300 288 293 302 31 330 277 246 249 254 269 282 112 273 285 285 278 272 273 275 296 335 40 320 313 305 306 288 309
287 33 23 312 331 317 331 310 299 321 342 325 327 316 307 308 306 296 299 306 309 251 238 181 262 274 264 270 275 246 241 259 243 254 250 292 285 294 180 212 278 268 262 281 327
353 349 349 295 306 288 260 307 313 327 338 312 296 326 322 302 295 294 297 298 294 305 309 191 269 283 282 277 270 270 266 270 273 274 275 276 277 269 236 192 245 250 273 311 325
19 2 322 295 296 325 340 329 301 311 307 316 322 308 296 296 291 289 293 292 286 287 171 241 286 298 284 297 340 288 280 313 305 278 273 267 320 328 274 250 255 319 318 313 306
Height
821 818 814 811 808 805 802 799 797 794 791 789 786 782 779 776 772 769 766 765 764 763 761 760 758 756 756 754 751 742 754 752 745 738 726 702 705 686 681 690 685 679 679 681 678
821 817 814 811 807 804 800 798 795 793 791 788 784 781 778 774 770 764 763 762 761 760 760 754 749 748 750 745 748 751 749 737 722 714 714 703 702 696 696 695 691 683 676 682 683
820 817 814 810 806 802 799 797 794 792 789 786 783 779 776 773 766 756 761 761 760 759 760 758 753 748 745 738 738 741 736 726 716 707 703 704 699 692 700 705 689 688 683 682 685
820 816 813 809 804 801 798 795 793 790 787 784 781 777 773 774 757 759 759 760 759 758 758 751 748 748 747 743 730 737 721 721 714 708 708 706 696 698 699 697 683 679 676 679 683
819 815 811 807 803 799 796 793 790 788 785 782 780 777 773 764 753 756 758 757 755 754 750 746 746 742 742 735 731 723 716 711 707 706 708 704 704 701 701 693 686 682 674 675 682
817 813 809 805 800 796 793 790 788 785 783 780 778 777 776 764 755 755 756 754 752 751 748 745 740 738 737 734 728 720 715 709 702 700 699 706 702 701 689 690 692 687 680 679 691
817 812 807 802 798 794 791 788 785 783 780 778 777 777 771 758 754 754 752 751 749 750 749 747 745 746 738 738 721 723 726 714 702 699 699 698 706 698 687 688 691 688 682 681 684
815 811 806 801 796 792 788 785 783 779 777 775 775 776 763 753 754 752 752 750 748 747 745 744 746 744 744 736 731 733 725 724 699 705 694 704 707 686 683 687 691 690 686 679 677
814 808 803 797 793 789 786 783 780 778 775 774 774 771 755 751 751 751 751 748 747 745 742 740 742 744 740 741 738 726 734 723 707 689 693 699 699 680 680 683 686 687 687 681 675
812 806 800 794 789 786 783 780 778 777 774 775 771 768 753 747 747 751 748 746 744 741 738 733 735 739 734 736 740 727 715 706 705 692 690 690 686 672 672 678 677 677 679 679 673
810 804 797 791 786 785 780 778 777 776 772 757 752 748 747 745 749 747 744 745 739 738 741 730 736 736 723 716 711 713 713 710 697 687 693 690 678 664 660 665 669 669 670 671 670
808 801 794 788 784 783 782 774 772 773 766 752 747 747 748 750 751 742 744 747 744 747 737 737 735 720 713 714 717 720 722 717 707 700 701 694 687 668 658 654 654 658 662 663 662
805 798 792 787 783 781 777 774 774 771 767 744 742 744 744 746 747 743 742 744 747 746 740 742 732 721 722 723 723 718 721 718 716 707 703 700 696 680 662 656 652 652 648 649 655
803 796 790 786 786 774 771 774 772 772 768 749 745 742 743 742 742 739 740 745 746 748 742 739 729 727 725 723 720 724 709 708 708 713 721 698 706 686 670 662 657 654 649 644 646
801 794 788 785 782 772 776 774 773 772 763 742 739 743 741 744 738 731 734 740 747 743 742 740 732 727 726 721 712 713 704 706 706 708 708 707 709 679 675 666 658 647 644 640 640
798 793 788 785 783 777 775 774 772 774 763 742 738 742 740 732 731 728 729 728 725 728 725 726 719 722 724 721 720 715 716 709 703 704 710 701 701 684 676 666 656 642 633 632 631
794 789 787 786 778 778 776 771 775 764 737 740 741 739 739 736 732 729 734 732 731 739 736 726 725 724 733 733 716 714 719 728 719 712 702 684 688 676 660 655 649 642 632 625 622
791 786 785 784 781 779 777 774 777 743 740 738 743 743 740 725 727 729 731 730 720 728 735 742 742 732 732 735 725 717 753 748 729 715 695 675 689 675 655 650 641 635 632 623 620
788 784 783 782 782 781 778 774 762 753 751 755 751 743 737 729 732 731 728 728 726 729 743 741 736 721 717 713 715 712 713 725 726 709 715 689 675 658 651 649 643 635 629 621 618
791 783 776 780 780 781 778 774 756 747 753 756 763 749 750 743 741 738 736 728 731 732 726 733 736 722 714 711 723 712 699 711 720 735 715 692 682 672 653 646 641 634 625 618 609
788 773 779 780 780 777 778 760 753 755 759 764 759 759 752 752 749 745 742 732 729 731 733 732 734 728 726 712 704 703 702 709 723 724 716 701 679 653 673 683 682 649 622 611 611
787 777 778 780 779 772 767 757 760 757 758 756 755 757 760 757 754 751 747 736 736 734 742 737 743 736 722 700 690 690 694 709 707 713 702 691 677 669 690 697 695 681 633 621 608
787 775 776 776 781 775 765 758 754 758 759 758 759 760 760 761 763 751 748 737 734 743 753 759 746 745 723 697 707 716 718 706 700 710 705 702 680 675 698 710 695 689 657 633 611
791 777 771 771 770 771 769 771 762 755 755 758 762 759 760 758 754 754 748 739 742 750 758 763 756 749 737 719 733 744 729 704 701 706 695 687 684 682 712 713 704 692 677 628 607
791 786 792 784 780 778 776 776 770 764 753 753 757 758 759 763 754 751 742 738 732 739 746 763 747 733 721 712 708 710 712 687 687 677 684 669 673 665 688 695 689 674 664 632 615
809 811 804 796 784 778 771 769 773 768 773 772 766 763 760 758 754 748 740 739 736 732 745 747 739 728 717 704 698 693 680 671 664 667 659 657 659 646 647 664 664 657 639 629 616
821 821 821 801 777 771 769 772 775 775 775 768 770 771 763 755 747 737 731 727 727 731 752 752 739 729 713 702 710 697 670 669 662 659 655 656 651 643 646 646 642 634 629 623 619